Total_Precipitation_Accumulation
4.15 4.33 4.37 4.40 3.96 3.94 4.13 4.46 4.22 4.37 4.32 3.80 3.27 3.08 3.09 3.06 3.01 3.11 3.40 3.43 3.22 3.32 4.16 4.65 4.49 4.10 3.58 3.09 2.80 2.66 2.60 2.44 2.25 1.95 1.82 1.92 1.91 1.91 1.81 1.60 1.51 1.27 0.99
4.48 4.57 4.58 4.53 4.04 3.86 4.13 4.44 4.35 4.86 4.76 4.51 3.85 3.45 3.27 3.25 3.17 3.20 3.53 3.75 3.69 3.63 4.11 4.74 5.01 4.93 4.45 3.83 3.33 3.02 3.00 2.95 2.69 2.22 1.99 2.08 2.14 2.07 1.97 1.80 1.54 1.31 1.07
4.71 4.55 4.53 4.36 4.20 4.08 4.22 4.37 4.50 4.87 4.55 4.45 4.28 3.91 3.66 3.43 3.22 3.40 3.80 4.22 3.83 3.74 4.15 4.70 5.14 5.12 4.95 4.64 4.07 3.62 3.26 3.04 2.89 2.52 2.14 2.01 2.05 1.98 1.89 1.81 1.64 1.40 1.13
4.57 4.74 4.48 4.23 4.30 4.21 4.43 4.82 4.82 4.88 4.97 4.84 4.58 4.27 4.02 3.88 3.39 3.45 3.63 3.86 4.11 3.53 3.96 4.71 4.99 4.73 4.82 5.05 4.96 4.65 4.09 3.45 3.16 2.83 2.46 2.18 2.09 2.00 1.89 1.82 1.74 1.56 1.27
4.21 4.76 4.67 4.64 4.52 4.73 4.68 4.30 4.93 5.13 5.13 5.05 4.37 4.28 3.81 3.72 3.62 3.41 3.53 3.60 3.84 3.77 3.78 3.87 4.47 4.32 4.56 5.15 5.50 5.61 5.29 4.58 3.87 3.40 3.02 2.69 2.50 2.24 2.00 1.88 1.77 1.55 1.31
4.22 4.63 4.52 4.54 4.70 5.14 5.24 5.07 5.37 5.22 5.01 5.05 4.25 4.02 3.70 3.30 3.22 3.19 3.02 3.28 3.35 3.01 3.18 3.42 3.86 3.31 3.62 4.16 4.76 5.50 5.94 5.83 5.07 4.20 3.79 3.51 3.30 2.83 2.29 1.97 1.73 1.55 1.37
4.04 4.50 4.28 4.79 4.79 4.98 5.12 5.00 5.22 5.06 4.80 4.88 4.84 4.26 3.59 3.09 2.95 2.74 2.75 2.98 2.91 2.90 3.22 3.68 3.97 3.83 3.38 3.32 3.63 4.46 5.53 6.18 5.95 5.17 4.65 4.32 4.07 3.55 2.79 2.35 1.93 1.62 1.46
3.71 3.85 4.49 4.47 4.57 4.83 4.87 4.83 4.87 4.59 4.28 4.68 5.03 4.91 4.12 3.63 3.09 2.49 2.71 2.75 2.90 3.18 3.17 3.24 3.74 4.09 3.84 3.86 3.38 3.36 4.57 5.75 6.33 6.12 5.76 5.35 4.94 4.17 3.39 2.82 2.22 1.79 1.59
3.71 3.87 4.22 4.29 4.38 4.29 4.55 4.78 4.59 4.51 4.40 4.48 4.73 5.07 4.59 3.91 3.26 2.78 2.60 2.67 3.04 3.34 3.21 3.16 3.11 3.35 3.42 3.91 4.04 3.44 3.59 4.06 4.99 6.18 6.62 6.41 5.56 4.35 3.58 3.14 2.67 2.16 1.78
3.43 3.59 3.84 4.08 4.22 4.12 4.32 4.15 4.28 4.49 4.57 4.39 4.48 4.40 4.37 4.13 3.91 3.36 2.84 2.70 2.95 3.06 3.04 2.76 2.75 3.10 3.26 3.74 3.92 3.28 2.93 2.90 3.34 4.63 5.84 6.08 5.55 4.48 3.72 3.47 3.42 3.01 2.35
3.28 3.30 3.53 3.77 3.89 3.81 3.83 4.04 4.42 4.35 4.32 4.25 4.40 4.47 4.60 4.36 4.01 3.79 3.35 3.07 2.86 2.58 2.63 2.64 2.61 2.72 2.98 3.45 3.68 3.09 2.91 2.66 2.56 2.99 3.82 4.49 4.79 4.45 3.94 3.84 4.13 4.12 3.63
3.19 3.16 3.27 3.60 3.68 3.61 3.62 3.80 3.94 3.99 4.04 4.19 4.22 4.13 4.34 4.36 4.17 4.17 3.69 3.29 2.94 2.41 2.33 2.39 2.51 2.64 2.76 3.05 2.89 2.75 2.82 2.60 2.36 2.31 2.59 3.13 3.68 3.99 3.88 3.95 4.31 4.63 4.65
3.05 3.06 3.07 3.23 3.19 3.19 3.32 3.62 3.67 3.61 3.67 3.81 3.81 3.88 3.86 3.74 3.87 4.00 3.89 3.38 2.98 2.41 2.35 2.25 2.23 2.47 2.50 2.94 2.99 2.82 2.63 2.47 2.26 2.17 2.24 2.37 2.71 3.10 3.46 3.69 4.13 4.57 4.81
2.91 2.87 2.78 2.76 2.72 2.80 2.91 3.35 3.43 3.38 3.49 3.50 3.38 3.73 3.56 3.33 3.54 3.58 3.65 3.81 3.48 3.04 2.91 2.62 2.23 2.24 2.45 2.71 2.88 2.76 2.35 2.33 2.16 2.08 2.05 2.07 2.19 2.38 2.67 2.96 3.29 3.59 3.85
2.50 2.66 2.61 2.47 2.44 2.60 2.81 3.01 3.07 3.08 3.25 3.21 3.27 3.38 3.14 3.06 3.14 3.18 3.40 3.72 3.84 3.54 3.32 3.06 2.56 2.28 2.33 2.60 2.95 2.60 2.43 2.34 2.15 2.03 1.91 1.85 1.86 1.91 2.02 2.18 2.38 2.59 2.72
2.50 2.48 2.48 2.38 2.35 2.37 2.47 2.74 2.76 2.86 2.92 2.95 3.10 3.14 3.08 2.98 3.08 3.02 3.09 3.35 3.62 3.70 3.42 3.03 2.70 2.34 2.44 2.37 2.63 2.53 2.53 2.49 2.18 1.95 1.75 1.65 1.66 1.71 1.81 1.88 1.93 2.06 2.11
2.54 2.51 2.51 2.51 2.40 2.33 2.41 2.55 2.40 2.61 2.64 2.68 2.64 2.68 2.74 2.98 3.09 3.00 3.05 3.11 3.38 3.70 3.58 3.27 2.94 2.72 2.64 2.61 2.46 2.40 2.30 2.19 1.99 1.85 1.61 1.50 1.50 1.54 1.60 1.68 1.77 1.89 1.97
2.17 2.19 2.16 2.20 2.24 2.42 2.55 2.46 2.41 2.44 2.51 2.45 2.51 2.65 2.53 2.73 2.90 2.82 2.94 2.97 3.14 3.52 3.66 3.73 3.61 3.29 3.03 2.85 2.78 2.55 2.12 1.93 1.99 1.97 1.75 1.57 1.48 1.44 1.44 1.48 1.59 1.75 1.86
2.13 2.08 2.08 2.10 2.13 2.35 2.50 2.43 2.44 2.52 2.53 2.38 2.47 2.50 2.36 2.52 2.59 2.66 2.73 2.79 2.99 3.23 3.55 3.48 3.48 3.41 3.25 2.98 3.06 2.74 2.40 2.33 1.90 1.87 1.83 1.65 1.54 1.46 1.42 1.43 1.51 1.59 1.68
2.20 2.30 2.31 2.24 2.24 2.15 2.17 2.32 2.46 2.46 2.42 2.31 2.32 2.25 2.13 2.15 2.25 2.46 2.48 2.62 2.85 3.08 3.30 3.25 3.30 3.40 3.48 3.48 3.47 3.19 2.97 2.72 2.32 1.87 1.90 1.74 1.67 1.55 1.41 1.34 1.37 1.46 1.61
2.21 2.45 2.47 2.43 2.38 2.17 2.00 2.13 2.26 2.18 2.21 2.16 2.12 1.96 1.77 1.84 1.96 2.04 1.95 2.34 2.69 2.83 2.92 2.99 3.08 3.27 3.43 3.67 3.48 3.33 3.21 3.15 2.82 2.35 2.28 1.93 1.80 1.61 1.44 1.38 1.39 1.39 1.44
2.37 2.41 2.34 2.31 2.20 1.87 1.94 1.89 1.84 1.90 1.96 1.97 1.98 1.96 1.82 1.73 1.69 1.72 1.68 1.85 2.20 2.37 2.58 2.87 3.00 3.20 3.30 3.33 3.51 3.47 3.42 3.28 2.98 2.64 2.62 2.53 2.39 2.25 1.97 1.62 1.53 1.38 1.29
2.29 2.18 2.10 2.09 2.02 1.94 1.80 1.57 1.51 1.64 1.83 1.91 1.94 1.98 1.72 1.58 1.66 1.54 1.61 1.67 1.71 1.82 2.00 2.40 2.68 2.78 2.87 2.95 3.24 3.32 3.30 3.16 3.06 2.92 2.96 2.93 2.82 2.57 2.12 1.94 1.88 1.61 1.46
2.13 2.12 2.00 1.99 2.06 1.93 1.84 1.58 1.48 1.45 1.63 1.68 1.67 1.71 1.76 1.72 1.63 1.69 1.67 1.63 1.54 1.57 1.69 1.72 1.89 2.13 2.42 2.68 2.87 3.07 3.36 3.29 3.20 3.11 3.06 3.12 2.97 2.82 2.42 2.14 2.04 1.80 1.68
2.06 2.06 2.03 2.05 2.04 1.97 1.91 1.68 1.60 1.56 1.67 1.67 1.68 1.70 1.79 1.83 1.87 1.76 1.69 1.70 1.68 1.68 1.64 1.63 1.56 1.67 1.86 2.00 2.18 2.47 2.84 3.18 3.36 3.33 3.12 3.20 3.13 3.15 3.07 2.65 2.25 2.08 1.84
2.11 2.08 2.10 2.07 1.96 1.92 1.81 1.62 1.60 1.58 1.78 1.89 1.98 1.96 1.86 1.73 1.75 1.66 1.61 1.69 1.65 1.65 1.57 1.53 1.46 1.44 1.44 1.59 1.79 2.01 2.32 2.71 2.99 3.14 3.07 3.19 3.35 3.70 3.85 3.29 2.68 2.27 2.05